Location: Izdebno
(52.6670°N, 16.2170°E)
Time: 04:47:01
(UTC+02:00)

Transit 2A - Pass Details

Date: 29 February 2024
Orbit: 596 x 956 km, 66.7° (Epoch: 21 April)

Event Time Altitude Azimuth Distance (km) Brightness Sun altitude
Rises 20:11:12 0° 244° (WSW) 2,837 9.6 -24.4°
Reaches altitude 10° 20:13:34 10° 253° (WSW) 1,936 8.7 -24.8°
Maximum altitude 20:17:35 37° 322° (NW) 949 6.9 -25.3°
Enters shadow 20:19:56 21° 16° (NNE) 1,386 7.4 -25.6°
Drops below altitude 10° 20:21:45 10° 30° (NNE) 2,007 - -25.9°
Sets 20:24:14 0° 39° (NE) 2,957 - -26.2°
